AB4KN Weather Reports


Display with metric or nautical units.
time (UTC)temp
F
wind
direction
speed
MPH
gust
MPH
rain 1hr
in
rain 24hr
in
rain mn
in
humidity
%
barometer
mb
20260508192156 70 279 0.0 0.0 0.00 0.00 0.00 51 1019.9
20260508191653 70 272 0.0 2.0 0.00 0.00 0.00 52 1020.2
20260508191149 70 235 3.0 3.0 0.00 0.00 0.00 50 1020.0
20260508190647 71 283 0.0 0.0 0.00 0.00 0.00 51 1020.0
20260508190144 70 174 1.0 2.0 0.00 0.00 0.00 50 1020.2
20260508185640 70 286 0.0 0.0 0.00 0.00 0.00 54 1020.3
20260508185138 70 285 0.0 0.0 0.00 0.00 0.00 53 1020.3
20260508184635 70 234 2.0 3.0 0.00 0.00 0.00 51 1020.5
20260508184132 71 263 1.0 2.0 0.00 0.00 0.00 49 1020.1
20260508183629 71 249 1.0 2.0 0.00 0.00 0.00 50 1020.3
20260508183125 70 277 0.0 0.0 0.00 0.00 0.00 53 1020.6
20260508182621 70 286 0.0 0.0 0.00 0.00 0.00 56 1020.8
20260508182118 71 318 2.0 3.0 0.00 0.00 0.00 53 1020.6
20260508181613 71 251 2.0 2.0 0.00 0.00 0.00 50 1020.8
20260508181111 71 258 1.0 2.0 0.00 0.00 0.00 51 1020.7
20260508180608 71 289 1.0 3.0 0.00 0.00 0.00 50 1020.7
20260508180104 70 221 1.0 2.0 0.00 0.00 0.00 53 1020.9
20260508175601 70 278 2.0 3.0 0.00 0.00 0.00 52 1021.0
20260508175058 70 256 3.0 3.0 0.00 0.00 0.00 54 1021.3
20260508174555 70 220 2.0 2.0 0.00 0.00 0.00 50 1021.2
20260508174052 70 288 1.0 2.0 0.00 0.00 0.00 53 1021.2
20260508173549 70 296 0.0 0.0 0.00 0.00 0.00 55 1021.0
20260508173045 70 173 6.0 7.0 0.00 0.00 0.00 50 1021.1
20260508172542 71 249 1.0 2.0 0.00 0.00 0.00 47 1021.6
20260508172039 70 28 1.0 2.0 0.00 0.00 0.00 54 1021.4
20260508171535 69 234 0.0 0.0 0.00 0.00 0.00 54 1021.6
20260508171032 70 106 3.0 3.0 0.00 0.00 0.00 49 1021.6
20260508170529 69 166 2.0 3.0 0.00 0.00 0.00 52 1021.8
20260508170026 69 260 2.0 2.0 0.00 0.00 0.00 54 1021.7
20260508165524 69 279 0.0 2.0 0.00 0.00 0.00 57 1021.8
20260508165020 68 201 0.0 2.0 0.00 0.00 0.00 56 1021.8
20260508164517 67 235 1.0 2.0 0.00 0.00 0.00 57 1021.7
20260508164014 67 199 0.0 0.0 0.00 0.00 0.00 58 1022.0
20260508163511 67 262 1.0 2.0 0.00 0.00 0.00 60 1021.8
20260508163007 67 271 1.0 2.0 0.00 0.00 0.00 60 1022.2
20260508162504 67 295 1.0 2.0 0.00 0.00 0.00 65 1022.4
20260508162001 67 286 0.0 0.0 0.00 0.00 0.00 65 1022.4
20260508161458 67 294 0.0 2.0 0.00 0.00 0.00 65 1022.4
20260508160955 67 220 1.0 2.0 0.00 0.00 0.00 62 1022.4
20260508160454 67 96 1.0 2.0 0.00 0.00 0.00 62 1022.1
20260508155950 67 290 0.0 0.0 0.00 0.00 0.00 63 1022.5
20260508155448 67 161 2.0 3.0 0.00 0.00 0.00 61 1022.5
20260508154944 66 216 1.0 2.0 0.00 0.00 0.00 61 1022.5
20260508154442 66 168 3.0 3.0 0.00 0.00 0.00 61 1022.7
20260508153938 66 262 0.0 0.0 0.00 0.00 0.00 63 1022.7
20260508153435 66 292 0.0 2.0 0.00 0.00 0.00 64 1023.1
20260508152931 66 283 0.0 0.0 0.00 0.00 0.00 60 1022.9
20260508152428 66 291 0.0 0.0 0.00 0.00 0.00 64 1023.1
20260508151925 66 293 0.0 2.0 0.00 0.00 0.00 62 1022.7
20260508151422 66 175 5.0 7.0 0.00 0.00 0.00 60 1023.1
20260508150918 66 263 0.0 0.0 0.00 0.00 0.00 62 1022.9
20260508150415 65 174 4.0 5.0 0.00 0.00 0.00 63 1023.1
20260508145911 65 251 0.0 0.0 0.00 0.00 0.00 65 1022.9
20260508145407 65 275 0.0 0.0 0.00 0.00 0.00 66 1022.7
20260508144904 65 296 1.0 2.0 0.00 0.00 0.00 64 1022.7
20260508144402 64 294 0.0 2.0 0.00 0.00 0.00 62 1022.7
20260508143859 64 156 1.0 3.0 0.00 0.00 0.00 65 1022.9
20260508143356 64 277 0.0 0.0 0.00 0.00 0.00 64 1023.3
20260508142853 63 296 0.0 0.0 0.00 0.00 0.00 63 1023.0
20260508142350 63 285 0.0 0.0 0.00 0.00 0.00 64 1023.2
20260508141846 63 288 0.0 0.0 0.00 0.00 0.00 69 1023.1
20260508141343 62 275 0.0 2.0 0.00 0.00 0.00 65 1023.1
20260508140841 62 277 0.0 0.0 0.00 0.00 0.00 69 1022.9
20260508140338 61 288 0.0 0.0 0.00 0.00 0.00 75 1023.1
20260508135833 61 265 0.0 0.0 0.00 0.00 0.00 73 1023.0
20260508135330 60 298 0.0 0.0 0.00 0.00 0.00 77 1023.0
20260508134826 60 297 0.0 0.0 0.00 0.00 0.00 77 1023.0
20260508134323 60 298 0.0 0.0 0.00 0.00 0.00 79 1022.9
20260508133819 60 298 0.0 0.0 0.00 0.00 0.00 79 1023.1
20260508133317 59 298 0.0 0.0 0.00 0.00 0.00 78 1023.0
20260508132814 59 298 0.0 0.0 0.00 0.00 0.00 79 1023.0
20260508132312 59 288 0.0 0.0 0.00 0.00 0.00 79 1022.9
20260508131808 59 288 0.0 0.0 0.00 0.00 0.00 80 1023.1
20260508131304 58 288 0.0 0.0 0.00 0.00 0.00 81 1022.9
20260508130801 58 288 0.0 0.0 0.00 0.00 0.00 83 1022.9
20260508130258 57 288 0.0 0.0 0.00 0.00 0.00 83 1022.9
20260508125754 57 288 0.0 0.0 0.00 0.00 0.00 85 1023.1
20260508125250 57 288 0.0 0.0 0.00 0.00 0.00 87 1022.9
20260508124749 57 288 0.0 0.0 0.00 0.00 0.00 87 1022.9
20260508124246 57 288 0.0 0.0 0.00 0.00 0.00 87 1022.6
20260508123744 56 288 0.0 0.0 0.00 0.00 0.00 87 1022.7
20260508123241 56 288 0.0 0.0 0.00 0.00 0.00 88 1023.0
20260508122737 55 288 0.0 0.0 0.00 0.00 0.00 88 1022.9
20260508122234 55 288 0.0 0.0 0.00 0.00 0.00 89 1023.1
20260508121731 55 288 0.0 0.0 0.00 0.00 0.00 89 1022.7
20260508121230 54 288 0.0 0.0 0.00 0.00 0.00 89 1022.9
20260508120727 54 289 0.0 0.0 0.00 0.00 0.00 89 1022.5
20260508120225 54 289 0.0 0.0 0.00 0.00 0.00 89 1022.5
20260508115722 53 288 0.0 0.0 0.00 0.00 0.00 89 1022.7
20260508115220 53 287 0.0 0.0 0.00 0.00 0.00 89 1022.6
20260508114716 53 286 0.0 0.0 0.00 0.00 0.00 89 1022.6
20260508114213 53 286 0.0 0.0 0.00 0.00 0.00 89 1022.4
20260508113709 52 285 0.0 0.0 0.00 0.00 0.00 89 1022.1
20260508113208 52 285 0.0 0.0 0.00 0.00 0.00 89 1022.1
20260508112703 52 285 0.0 0.0 0.00 0.00 0.00 89 1021.9
20260508112201 52 285 0.0 0.0 0.00 0.00 0.00 89 1021.8
20260508111657 52 285 0.0 0.0 0.00 0.00 0.00 89 1021.7
20260508111155 53 285 0.0 0.0 0.00 0.00 0.00 89 1021.7
20260508110652 53 285 0.0 0.0 0.00 0.00 0.00 89 1021.4
20260508110149 53 285 0.0 0.0 0.00 0.00 0.00 88 1021.3
20260508105644 53 295 0.0 0.0 0.00 0.00 0.00 88 1021.0
20260508105141 53 295 0.0 0.0 0.00 0.00 0.00 88 1021.0
20260508104639 54 299 0.0 0.0 0.00 0.00 0.00 88 1021.2
20260508104135 54 299 0.0 0.0 0.00 0.00 0.00 88 1020.9
20260508103632 54 299 0.0 0.0 0.00 0.00 0.00 88 1021.0
20260508103129 53 295 0.0 0.0 0.00 0.00 0.00 88 1020.8
20260508102626 53 295 0.0 0.0 0.00 0.00 0.00 88 1020.6
20260508102125 54 295 0.0 0.0 0.00 0.00 0.00 88 1020.4
20260508101621 54 295 0.0 0.0 0.00 0.00 0.00 88 1020.3
20260508101119 54 302 0.0 0.0 0.00 0.00 0.00 88 1020.3
20260508100617 54 302 0.0 0.0 0.00 0.00 0.00 88 1020.3
20260508100114 54 302 0.0 0.0 0.00 0.00 0.00 88 1020.6
20260508095610 54 302 0.0 0.0 0.00 0.00 0.00 88 1020.4
20260508095108 54 302 0.0 0.0 0.00 0.00 0.00 88 1020.4
20260508094605 54 302 0.0 0.0 0.00 0.00 0.00 88 1020.4
20260508094101 54 302 0.0 0.0 0.00 0.00 0.00 88 1020.0
20260508093559 54 302 0.0 0.0 0.00 0.00 0.00 88 1020.1
20260508093056 54 303 0.0 0.0 0.00 0.00 0.00 88 1020.2
20260508092553 54 303 0.0 0.0 0.00 0.00 0.00 88 1020.2
20260508092052 55 303 0.0 0.0 0.00 0.00 0.00 88 1020.1
20260508091549 55 303 0.0 0.0 0.00 0.00 0.00 88 1020.2
20260508091046 55 303 0.0 0.0 0.00 0.00 0.00 88 1019.9
20260508090544 55 303 0.0 0.0 0.00 0.00 0.00 88 1020.1
20260508090040 55 303 0.0 0.0 0.00 0.00 0.00 88 1020.1
20260508085536 55 303 0.0 0.0 0.00 0.00 0.00 88 1020.0
20260508085034 55 303 0.0 0.0 0.00 0.00 0.00 88 1019.9
20260508084531 55 303 0.0 0.0 0.00 0.00 0.00 88 1019.9
20260508084028 55 303 0.0 0.0 0.00 0.00 0.00 88 1019.9
20260508083525 55 303 0.0 0.0 0.00 0.00 0.00 88 1019.9
20260508083021 55 303 0.0 0.0 0.00 0.00 0.00 88 1019.8
20260508082517 55 302 0.0 0.0 0.00 0.00 0.00 88 1019.8
20260508082015 55 303 0.0 0.0 0.00 0.00 0.00 88 1020.0
20260508081512 55 303 0.0 0.0 0.00 0.00 0.00 88 1020.0
20260508081008 55 303 0.0 0.0 0.00 0.00 0.00 89 1019.7
20260508080506 55 303 0.0 0.0 0.00 0.00 0.00 89 1019.7
20260508080003 55 303 0.0 0.0 0.00 0.00 0.00 89 1019.7
20260508075500 55 303 0.0 0.0 0.00 0.00 0.00 89 1019.7
20260508074958 56 303 0.0 0.0 0.00 0.00 0.00 89 1019.8
20260508074455 56 303 0.0 0.0 0.00 0.00 0.00 89 1019.7
20260508073951 56 303 0.0 0.0 0.00 0.00 0.00 89 1019.7
20260508073449 56 303 0.0 0.0 0.00 0.00 0.00 89 1020.0
20260508072946 56 303 0.0 0.0 0.00 0.00 0.00 89 1019.8
20260508072442 56 303 0.0 0.0 0.00 0.00 0.00 89 1019.8
20260508071939 56 303 0.0 0.0 0.00 0.00 0.00 89 1019.8
20260508071438 56 303 0.0 0.0 0.00 0.00 0.00 89 1019.9
20260508070935 57 303 0.0 0.0 0.00 0.00 0.00 89 1019.9
20260508070432 57 303 0.0 0.0 0.00 0.00 0.00 89 1020.2
20260508065930 57 303 0.0 0.0 0.00 0.00 0.00 89 1019.9
20260508065428 57 303 0.0 0.0 0.00 0.00 0.00 89 1020.1
20260508064926 57 303 0.0 0.0 0.00 0.00 0.00 89 1020.3
20260508064423 57 303 0.0 0.0 0.00 0.00 0.00 89 1020.2
20260508063921 57 303 0.0 0.0 0.00 0.00 0.00 89 1020.3
20260508063418 57 302 0.0 0.0 0.00 0.00 0.00 89 1020.3
20260508062915 57 302 0.0 0.0 0.00 0.00 0.00 89 1020.3
20260508062413 57 302 0.0 0.0 0.00 0.00 0.00 89 1020.2
20260508061909 58 302 0.0 0.0 0.00 0.00 0.00 89 1020.3
20260508061407 58 303 0.0 0.0 0.00 0.00 0.00 89 1020.3
20260508060903 58 303 0.0 0.0 0.00 0.00 0.00 89 1020.5
20260508060401 58 302 0.0 0.0 0.00 0.00 0.00 89 1020.6
20260508055901 58 302 0.0 0.0 0.00 0.00 0.00 89 1020.2
20260508055359 58 302 0.0 0.0 0.00 0.00 0.00 89 1020.4
20260508054855 58 303 0.0 0.0 0.00 0.00 0.00 89 1020.4
20260508054353 58 303 0.0 0.0 0.00 0.00 0.00 89 1020.2
20260508053849 58 303 0.0 0.0 0.00 0.00 0.00 89 1020.3
20260508053347 58 303 0.0 0.0 0.00 0.00 0.00 89 1020.5
20260508052844 58 303 0.0 0.0 0.00 0.00 0.00 89 1020.5
20260508052342 58 303 0.0 0.0 0.00 0.00 0.00 89 1020.4
20260508051837 58 303 0.0 0.0 0.00 0.00 0.00 89 1020.3
20260508051333 58 303 0.0 0.0 0.00 0.00 0.00 89 1020.7
20260508050829 58 303 0.0 0.0 0.00 0.00 0.00 89 1020.5
20260508050327 59 303 0.0 0.0 0.00 0.00 0.00 89 1020.6
20260508045822 59 303 0.0 0.0 0.00 0.00 0.00 89 1020.3
20260508045320 58 303 0.0 0.0 0.00 0.00 0.00 88 1020.7
20260508044818 58 303 0.0 0.0 0.00 0.00 0.00 88 1020.7
20260508044314 58 303 0.0 0.0 0.00 0.00 0.00 88 1020.8
20260508043810 59 303 0.0 0.0 0.00 0.00 0.00 88 1020.3
20260508043308 59 304 0.0 0.0 0.00 0.00 0.00 88 1020.6
20260508042804 59 304 0.0 0.0 0.00 0.00 0.00 88 1020.4
20260508042306 59 304 0.0 0.0 0.00 0.00 0.00 88 1020.4
20260508041758 59 304 0.0 0.0 0.00 0.00 0.00 87 1020.2
20260508041255 59 304 0.0 0.0 0.00 0.00 0.00 87 1020.3
20260508040751 59 304 0.0 0.0 0.00 0.00 0.00 87 1020.4
20260508040249 59 304 0.0 0.0 0.00 0.00 0.00 86 1020.5
20260508035746 60 304 0.0 0.0 0.00 0.83 0.83 86 1020.6
20260508035244 60 304 0.0 0.0 0.00 0.83 0.83 86 1020.4
20260508034740 60 304 0.0 0.0 0.00 0.83 0.83 86 1020.4
20260508034237 60 304 0.0 0.0 0.00 0.83 0.83 86 1020.3
20260508033734 60 304 0.0 0.0 0.00 0.83 0.83 86 1020.3
20260508033232 60 304 0.0 0.0 0.00 0.83 0.83 86 1020.3
20260508032730 61 304 0.0 0.0 0.00 0.83 0.83 86 1020.3
20260508032227 61 304 0.0 0.0 0.00 0.83 0.83 85 1020.2
20260508031723 61 304 0.0 0.0 0.00 0.83 0.83 85 1020.2
20260508031220 61 304 0.0 0.0 0.00 0.83 0.83 85 1020.0
20260508030716 61 304 0.0 0.0 0.00 0.83 0.83 85 1020.1
20260508030214 61 304 0.0 0.0 0.00 0.83 0.83 85 1020.2
20260508025710 62 304 0.0 0.0 0.00 0.83 0.83 85 1020.0
20260508025207 62 304 0.0 0.0 0.00 0.83 0.83 84 1020.1
20260508024703 62 304 0.0 0.0 0.00 0.83 0.83 84 1020.0
20260508024201 62 304 0.0 0.0 0.00 0.83 0.83 84 1020.0
20260508023656 62 304 0.0 0.0 0.00 0.83 0.83 84 1019.9
20260508023154 62 304 0.0 0.0 0.00 0.83 0.83 84 1020.1
20260508022650 62 304 0.0 0.0 0.00 0.83 0.83 84 1019.9
20260508022147 62 304 0.0 0.0 0.00 0.83 0.83 84 1020.0
20260508021643 62 304 0.0 0.0 0.00 0.83 0.83 84 1019.8
20260508021138 62 305 0.0 0.0 0.00 0.83 0.83 84 1019.9
20260508020637 62 308 0.0 0.0 0.00 0.83 0.83 84 1019.9
20260508020134 62 308 0.0 0.0 0.00 0.83 0.83 84 1019.8
20260508015631 63 308 0.0 0.0 0.00 0.83 0.83 84 1019.6
20260508015128 63 306 0.0 0.0 0.00 0.83 0.83 84 1019.8
20260508014625 63 308 0.0 0.0 0.00 0.83 0.83 84 1019.6
20260508014121 63 308 0.0 0.0 0.00 0.83 0.83 83 1019.4
20260508013617 63 308 0.0 0.0 0.00 0.83 0.83 83 1019.7
20260508013114 63 308 0.0 0.0 0.00 0.83 0.83 83 1019.5
20260508012612 64 308 0.0 0.0 0.00 0.83 0.83 83 1019.4
20260508012109 64 308 0.0 0.0 0.00 0.83 0.83 83 1019.3
20260508011607 64 309 0.0 0.0 0.00 0.83 0.83 84 1019.4
20260508011104 64 308 0.0 0.0 0.00 0.83 0.83 83 1019.3
20260508010601 64 304 0.0 0.0 0.00 0.83 0.83 83 1019.5
20260508010059 64 304 0.0 0.0 0.00 0.83 0.83 82 1019.4
20260508005555 65 304 0.0 0.0 0.00 0.83 0.83 82 1019.1
20260508005051 65 304 0.0 0.0 0.00 0.83 0.83 81 1018.9
20260508004547 65 304 0.0 0.0 0.00 0.83 0.83 81 1018.9
20260508004044 66 304 0.0 0.0 0.00 0.83 0.83 80 1018.8
20260508003541 66 304 2.0 2.0 0.00 0.83 0.83 80 1018.7
20260508003038 66 306 0.0 2.0 0.00 0.83 0.83 79 1018.8
20260508002534 66 299 0.0 0.0 0.00 0.83 0.83 80 1018.6
20260508002032 66 216 0.0 0.0 0.00 0.83 0.83 80 1018.7
20260508001527 66 323 0.0 0.0 0.00 0.83 0.83 81 1018.6
20260508001024 67 304 0.0 0.0 0.00 0.83 0.83 81 1018.3
20260508000520 67 304 0.0 0.0 0.00 0.83 0.83 81 1018.3
20260508000018 67 304 0.0 0.0 0.00 0.83 0.83 81 1018.5
20260507235514 68 309 0.0 0.0 0.00 0.83 0.83 81 1018.1
20260507235011 68 306 0.0 0.0 0.00 0.83 0.83 81 1018.2
20260507234508 68 308 0.0 0.0 0.00 0.83 0.83 80 1017.9
20260507234004 68 303 0.0 0.0 0.00 0.83 0.83 81 1018.2
20260507233501 69 304 1.0 2.0 0.00 0.83 0.83 81 1018.2
20260507233000 69 304 0.0 0.0 0.00 0.83 0.83 81 1017.9
20260507232455 69 304 0.0 0.0 0.00 0.83 0.83 81 1017.9
20260507231953 69 304 0.0 0.0 0.00 0.83 0.83 80 1018.0
20260507231449 69 302 0.0 2.0 0.00 0.83 0.83 79 1017.8
20260507230946 69 304 1.0 2.0 0.00 0.83 0.83 79 1017.9
20260507230443 69 304 0.0 0.0 0.00 0.83 0.83 79 1017.7
20260507225938 69 305 0.0 2.0 0.00 0.83 0.83 81 1017.6
20260507225434 70 311 0.0 2.0 0.00 0.83 0.83 80 1017.8
20260507224931 70 283 2.0 3.0 0.00 0.83 0.83 77 1018.0
20260507224427 70 301 0.0 2.0 0.00 0.83 0.83 74 1017.8
20260507223924 71 300 0.0 0.0 0.00 0.83 0.83 78 1017.7
20260507223420 70 283 1.0 2.0 0.00 0.83 0.83 76 1017.6
20260507222917 71 299 0.0 0.0 0.00 0.83 0.83 77 1017.5
20260507222414 71 306 0.0 2.0 0.00 0.83 0.83 76 1017.8
20260507221911 71 293 0.0 0.0 0.00 0.83 0.83 78 1017.4
20260507221407 71 295 1.0 2.0 0.00 0.83 0.83 77 1017.3
20260507220903 71 292 0.0 2.0 0.00 0.83 0.83 76 1017.3
20260507220401 71 295 0.0 2.0 0.00 0.83 0.83 76 1017.4
20260507215857 71 300 2.0 3.0 0.00 0.83 0.83 72 1017.4
20260507215354 70 301 0.0 2.0 0.00 0.83 0.83 77 1017.3
20260507214851 70 237 1.0 3.0 0.00 0.83 0.83 78 1017.3
20260507214349 71 296 0.0 0.0 0.00 0.83 0.83 80 1017.5
20260507213844 71 275 0.0 0.0 0.00 0.83 0.83 77 1017.2
20260507213341 71 286 0.0 0.0 0.00 0.83 0.83 77 1017.3
20260507212838 71 271 1.0 2.0 0.00 0.83 0.83 76 1017.2
20260507212334 71 244 3.0 5.0 0.00 0.83 0.83 79 1017.4
20260507211830 71 302 0.0 2.0 0.00 0.83 0.83 79 1017.3
20260507211327 71 295 0.0 0.0 0.00 0.83 0.83 78 1017.5
20260507210824 72 297 0.0 0.0 0.00 0.83 0.83 76 1017.0
20260507210321 72 308 2.0 2.0 0.00 0.83 0.83 75 1017.2
20260507205818 72 246 5.0 12.0 0.00 0.83 0.83 74 1017.0
20260507205315 71 159 3.0 5.0 0.00 0.83 0.83 78 1017.3
20260507204810 71 272 1.0 2.0 0.00 0.83 0.83 77 1017.2
20260507204308 71 309 3.0 3.0 0.00 0.83 0.83 78 1017.2
20260507203806 71 300 1.0 2.0 0.00 0.83 0.83 79 1017.2
20260507203304 71 308 1.0 2.0 0.00 0.83 0.83 79 1017.4
20260507202800 70 291 0.0 0.0 0.00 0.83 0.83 79 1017.4
20260507202256 70 315 2.0 2.0 0.00 0.83 0.83 80 1017.3
20260507201750 71 312 0.0 0.0 0.00 0.83 0.83 80 1017.5
20260507201247 70 311 3.0 3.0 0.00 0.83 0.83 80 1017.5
20260507200744 70 293 0.0 0.0 0.00 0.83 0.83 81 1017.4
20260507200239 70 300 0.0 2.0 0.00 0.83 0.83 82 1017.5
20260507195736 70 314 2.0 3.0 0.00 0.83 0.83 83 1017.5
20260507195234 69 298 2.0 2.0 0.00 0.83 0.83 82 1017.5
20260507194731 69 300 1.0 2.0 0.00 0.83 0.83 82 1017.3
20260507194226 69 300 2.0 2.0 0.00 0.83 0.83 82 1017.6
20260507193723 69 279 0.0 0.0 0.00 0.83 0.83 82 1017.5
20260507193220 69 312 0.0 2.0 0.00 0.83 0.83 82 1017.5
20260507192716 69 294 0.0 0.0 0.00 0.83 0.83 83 1017.4
20260507192213 68 298 0.0 0.0 0.00 0.83 0.83 83 1017.5